Location: Treviso
(45.6669°N, 12.2430°E)
Time: 00:50:42
(UTC+01:00)

ISS - Pass Details

Date: 12 March 2026
Orbit: 416 x 426 km, 51.6° (Epoch: 9 March)

Event Time Altitude Azimuth Distance (km) Brightness Sun altitude
Rises 20:30:54 0° 250° (WSW) 2,374 0.8 -24.4°
Reaches altitude 10° 20:33:01 10° 254° (WSW) 1,510 -0.3 -24.8°
Enters shadow 20:34:57 31° 265° (W) 775 -1.9 -25.1°
